Regional Weather Roundup
Issued by NWS

Home | Current Version | Previous Version | Text Only | Print | Product List | Glossary Off
Versions: 1 2 3 4 5 6 7 8 9 10 11 12 13 14 15 16 17 18 19 20 21 22 23 24 25 26 27 28 29 30 31 32 33 34 35 36 37 38 39 40 41 42 43 44 45 46 47 48 49 50

000
ASUS43 KIND 221709
RWRIN

WEATHER ROUNDUP FOR INDIANA
NATIONAL WEATHER SERVICE INDIANAPOLIS IN
100 PM EDT MON MAY 22 2017

NOTE: "FAIR" INDICATES FEW OR NO CLOUDS BELOW 12,000 FEET WITH NO
SIGNIFICANT WEATHER AND/OR OBSTRUCTIONS TO VISIBILITY.

* - STATION DOES NOT REPORT WEATHER SUCH AS PRECIPITATION OR FOG.

+ - STATION NOT QUALITY CONTROLLED BY THE NATIONAL WEATHER SERVICE.
    USE DATA WITH CAUTION...ESPECIALLY DEWPOINT AND RELATIVE
    HUMIDITY OBSERVATIONS.

INZ001>003-010>013-019-020-221800-
NORTHWEST INDIANA

CITY           SKY/WX    TMP DP  RH WIND       PRES   REMARKS
GARY /AIRPORT/ MOSUNNY   66  41  39 SW14      30.03F
KNOX *+        SUNNY     64  36  34 W16       30.04F
LA PORTE +     SUNNY     63  47  57 SW13      30.04F
MICHIGAN CITY+ SUNNY     64  45  48 SW12      30.03F
MONTICELLO +   SUNNY     64  45  50 SW8G17    30.07S
RENSSELAER +   SUNNY     64  41  42 SW14G20   30.06F
VALPARAISO     SUNNY     66  47  50 SW14      30.04F

$$

LMZ046-743>745-221800-
SOUTHERN LAKE MICHIGAN

STATION/POSITION TIME  TEMP    WIND        PRES    WAVE
                       AIR SEA DIR/SP/G            HT
                 (UTC) (F)     (DEG/KT/KT) (MB)    (FT)
BURNS HARBOR     1700   63     200/ 14/ 22 1016.6
MICHIGAN CITY    1640   59     240/ 10/ 11   N/A
5NW MICH CITY    1700   55 53  220/  4/  6   N/A     1

$$

INZ004-005-014>016-021>024-221800-
NORTH CENTRAL INDIANA

CITY           SKY/WX    TMP DP  RH WIND       PRES   REMARKS
ELKHART        SUNNY     64  45  48 W12G17    30.03F
GOSHEN         SUNNY     63  46  54 W16G23    30.04F
LOGANSPORT +   SUNNY     63  46  55 SW8       30.08F
PERU/GRISSOM   SUNNY     64  48  56 W10G17    30.06F
ROCHESTER +    SUNNY     64  46  52 SW10G20   30.07S
SOUTH BEND     SUNNY     63  45  51 SW15      30.03F
WARSAW +       SUNNY     63  45  51 W9G16     30.06F

$$

INZ006>009-017-018-025>027-221800-
NORTHEAST INDIANA

CITY           SKY/WX    TMP DP  RH WIND       PRES   REMARKS
ANGOLA *+      MOSUNNY   63  54  72 W13       30.03F
AUBURN +       SUNNY     63  43  48 W12G21    30.06S
FORT WAYNE     PTSUNNY   64  47  53 W15       30.06F
HUNTINGTON +   SUNNY     64  47  54 SW7       30.06F
KENDALLVILLE + SUNNY     64  45  50 W13       30.05F

$$

INZ028-029-035-036-043>045-051>053-221800-
WEST CENTRAL INDIANA

CITY           SKY/WX    TMP DP  RH WIND       PRES   REMARKS
CRAWFORDSVL +  SUNNY     62  50  66 SW9       30.09F
GREENCASTLE +  SUNNY     63  46  55 CALM      30.11S
LAFAYETTE      SUNNY     65  48  54 SW9       30.07F
TERRE HAUTE    SUNNY     66  43  43 MISG      30.10F

$$

INZ030>032-037>040-046>048-054>057-064-065-221800-
CENTRAL INDIANA

CITY           SKY/WX    TMP DP  RH WIND       PRES   REMARKS
ANDERSON       SUNNY    N/A N/A N/A SW6       30.09
CP ATTERBURY + CLOUDY    64  45  48 NE5       30.13S
COLUMBUS       MOSUNNY   64  37  36 N3        30.13F
FRANKFORT +    SUNNY     67  50  54 SW8       30.10F
GREENWOOD *+   CLOUDY    64  45  49 W6        30.11F
INDIANAPOLIS   PTSUNNY   65  47  52 S6        30.11S
-EAGLE CREEK   CLOUDY    64  46  52 S6        30.10F
KOKOMO +       MOSUNNY   63  46  54 SW6       30.08F
MT COMFORT *+  SUNNY     64  45  48 SW5       30.11S
SHELBYVILLE    SUNNY     65  42  43 SE5       30.11F
ZIONSVILLE +   SUNNY     63  49  60 W7        30.10F

$$

INZ033-034-041-042-049-050-058-059-221800-
EAST CENTRAL INDIANA

CITY           SKY/WX    TMP DP  RH WIND       PRES   REMARKS
MUNCIE         SUNNY     64  46  52 NW6       30.09F
RICHMOND +     CLOUDY    61  41  48 CALM      30.12F HAZE

$$

INZ060-061-067>069-081>083-085>088-221800-
SOUTHWEST INDIANA

CITY           SKY/WX    TMP DP  RH WIND       PRES   REMARKS
EVANSVILLE     MOSUNNY   71  46  40 VRB5      30.13F
HUNTINGBURG *+ CLOUDY    66  47  50 E5        30.14F
WASHINGTON +   CLOUDY    66  40  38 CALM      30.13F

$$

INZ062-063-066-070>080-084-089>092-221800-
SOUTH CENTRAL AND SOUTHEAST INDIANA

CITY           SKY/WX    TMP DP  RH WIND       PRES   REMARKS
BEDFORD +      CLOUDY    66  41  39 CALM      30.12
BLOOMINGTON    CLOUDY    66  44  45 E5        30.12F
MADISON *+     CLOUDY    63  39  42 CALM      30.15F
NORTH VERNON + MOSUNNY   63  45  51 CALM      30.14
SEYMOUR +      CLOUDY    66  43  42 E3        30.13F

$$





USA.gov is the U.S. government's official web portal to all federal, state and local government web resources and services.